Meteo Giornale » Osservazioni meteo Svizzera » Lugano

ore: 05:20 - Osservazioni Meteo Lugano
Lat. 46° 0' N Lon. 8° 58' E Alt. 273 metri s.l.m.

coperto Europe/Zurich

20 °C

Coperto

Temp. 24 Ore

19 °C

29 °C

Nord

1.8 Km/h

Dew point 17 °C

Umidità 82 %

Visibilità  10 Km

Il sole sorge alle ore 05:36

Il sole tramonta alle ore 21:06

Data e Ora Cielo e Fenomeni T °C DP °C Um. % Pres. hPa Vis. km Vento km/h
Oggi h: 05:20 coperto Coperto 20 17 82 1019 10 N 1.8
Oggi h: 04:50 coperto Coperto 21 17 77 1019 10 N 3.7
Oggi h: 04:20 coperto Coperto 21 17 77 1019 10 N 0
Oggi h: 03:50 coperto Coperto 21 16 73 1019 10 N 1.8
Oggi h: 03:20 molto_nuvoloso Molto Nuvoloso 21 17 77 1020 10 N 3.7
Oggi h: 02:50 coperto Coperto 21 17 77 1020 10 N 1.8
Oggi h: 02:20 coperto Coperto 21 17 77 1020 10 N 1.8
Oggi h: 01:50 coperto Coperto 21 18 82 1020 10 N 5.5
Oggi h: 01:20 coperto Coperto 21 17 77 1020 10 S 7.4
Oggi h: 00:50 molto_nuvoloso Molto Nuvoloso 21 18 82 1020 10 N 1.8
Oggi h: 00:20 molto_nuvoloso Molto Nuvoloso 21 18 82 1020 10 N 1.8
Ieri h: 23:50 molto_nuvoloso Molto Nuvoloso 22 17 73 1020 10 N 1.8
Ieri h: 23:20 coperto Coperto 22 17 73 1020 10 N 0
Ieri h: 22:50 molto_nuvoloso Molto Nuvoloso 22 16 68 1020 10 N 1.8
Ieri h: 22:20 nuvoloso Nuvoloso 22 16 68 1020 10 N 3.7
Ieri h: 21:50 poco_nuvoloso Poco Nuvoloso 23 17 68 1020 10 N 3.7
Ieri h: 21:20 sereno Sereno 24 17 64 1019 10 N 1.8
Ieri h: 20:50 sereno Sereno 24 17 64 1019 10 S 7.4
Ieri h: 20:20 sereno Sereno 25 18 65 1019 10 N 5.5
Ieri h: 19:50 sereno Sereno 26 17 57 1019 10 N 3.7
Ieri h: 19:20 sereno Sereno 27 16 50 1019 10 N 5.5
Ieri h: 18:50 poco_nuvoloso Poco Nuvoloso 27 16 50 1019 10 S 7.4
Ieri h: 18:20 poco_nuvoloso Poco Nuvoloso 28 16 48 1019 10 S 11.1
Ieri h: 17:50 poco_nuvoloso Poco Nuvoloso 28 16 48 1019 10 S 14.8
Ieri h: 17:20 poco_nuvoloso Poco Nuvoloso 29 15 42 1019 10 S 11.1
Ieri h: 16:50 poco_nuvoloso Poco Nuvoloso 29 16 45 1019 10 S 13
Ieri h: 16:20 poco_nuvoloso Poco Nuvoloso 29 16 45 1019 10 S 11.1
Ieri h: 15:50 poco_nuvoloso Poco Nuvoloso 29 16 45 1019 10 S 9.3
Ieri h: 15:20 poco_nuvoloso Poco Nuvoloso 29 16 45 1020 10 S 11.1
Ieri h: 14:50 poco_nuvoloso Poco Nuvoloso 28 15 45 1020 10 S 9.3
Ieri h: 14:20 poco_nuvoloso Poco Nuvoloso 28 15 45 1020 10 S 9.3
Ieri h: 13:50 poco_nuvoloso Poco Nuvoloso 28 15 45 1021 10 S 9.3
Ieri h: 13:20 poco_nuvoloso Poco Nuvoloso 28 15 45 1021 10 S 9.3
Ieri h: 12:50 poco_nuvoloso Poco Nuvoloso 27 14 44 1021 10 S 9.3
Ieri h: 12:20 poco_nuvoloso Poco Nuvoloso 27 15 47 1021 10 S 9.3
Ieri h: 11:50 poco_nuvoloso Poco Nuvoloso 26 13 44 1022 10 N 5.5
Ieri h: 11:20 poco_nuvoloso Poco Nuvoloso 25 14 50 1022 10 N 5.5
Ieri h: 10:50 poco_nuvoloso Poco Nuvoloso 24 14 53 1022 10 N 3.7
Ieri h: 10:20 nuvoloso Nuvoloso 23 16 64 1022 10 N 3.7
Ieri h: 09:50 nuvoloso Nuvoloso 22 15 64 1022 10 N 3.7
Ieri h: 09:20 molto_nuvoloso Molto Nuvoloso 21 16 73 1023 10 N 3.7
Ieri h: 08:50 molto_nuvoloso Molto Nuvoloso 21 16 73 1023 10 N 3.7
Ieri h: 08:20 molto_nuvoloso Molto Nuvoloso 20 16 77 1023 10 N 0
Ieri h: 07:50 coperto Coperto 20 16 77 1023 10 N 1.8
Ieri h: 07:20 coperto Coperto 20 16 77 1023 10 N 0
Ieri h: 06:50 coperto Coperto 19 16 82 1022 10 N 0
Ieri h: 06:20 coperto Coperto 19 16 82 1022 10 N 1.8
Ieri h: 05:50 coperto Coperto 20 16 77 1022 10 N 1.8